Tracking 31027 objects as of 19-Jul-2025
HD Live streaming from Space Station
objects crossing your sky now

STARLINK-32630

Track STARLINK-32630 now!
10-day predictions
STARLINK-32630 is classified as:


NORAD ID: 62047
Int'l Code: 2024-216R
Perigee: 488.6 km
Apogee: 491.7 km
Inclination: 43.0 °
Period: 94.3 minutes
Semi major axis: 6861 km
RCS: Unknown
Launch date: November 21, 2024
Source: United States (US)
Launch site: AIR FORCE EASTERN TEST RANGE (AFETR)
Your satellite tracking list
FENGYUN 1C DEB
Track 1 satellite(s)




NASA's NSSDC Master Catalog

Two Line Element Set (TLE):
1 62047U 24216R   25199.55228548  .00017532  00000-0  64459-3 0  9998
2 62047  43.0023 145.8434 0002270 270.7895  89.2697 15.27605133 37915
Source of the keplerian elements: AFSPC